Location: Caltech
(34.1382°N, 118.1253°W)
Time: 12:23:23
(UTC-07:00)

Uosat F - Visible Passes

Search period start: 27 August 2015 00:00
Search period end: 06 September 2015 00:00
Orbit: 750 x 762 km, 98.7° (Epoch: 26 August)

Date Brightness Start Highest point End Pass type
(mag) Time Alt. Az. Time Alt. Az. Time Alt. Az.
28 Aug 12.3 05:37:35 10° NNE 05:42:21 44° E 05:47:08 10° S visible
29 Aug 13.8 04:59:34 10° NE 05:02:42 17° E 05:06:03 10° SE visible
31 Aug 13.2 05:18:47 10° NE 05:22:59 27° E 05:27:16 10° SSE visible
02 Sep 12.3 05:38:24 10° NNE 05:43:11 44° E 05:47:58 10° S visible
03 Sep 13.8 05:00:23 10° NE 05:03:32 17° E 05:06:52 10° SE visible
04 Sep 11.4 05:58:17 10° NNE 06:03:18 73° ESE 06:08:19 10° S visible
05 Sep 13.2 05:19:35 10° NE 05:23:48 28° E 05:28:07 10° SSE visible
